Location: Newark
(42.3706°N, 7.7003°W)
Time: 01:34:34
(UTC+00:00)

Envisat - Visible Passes

Search period start: 01 October 2020 00:00
Search period end: 11 October 2020 00:00
Orbit: 764 x 766 km, 98.1° (Epoch: 30 September)

Date Brightness Start Highest point End Pass type
(mag) Time Alt. Az. Time Alt. Az. Time Alt. Az.
02 Oct 5.2 05:51:34 10° NNE 05:56:05 31° E 06:00:33 10° SSE visible
02 Oct 5.9 18:46:31 10° SW 18:50:29 23° W 18:54:28 10° NW visible
03 Oct 6.3 05:16:17 10° ENE 05:18:56 14° E 05:21:35 10° ESE visible
04 Oct 6.4 19:13:56 10° WSW 19:16:12 13° W 19:18:29 10° WNW visible
05 Oct 5.6 05:40:30 10° NE 05:44:38 25° E 05:48:46 10° SSE visible
05 Oct 5.4 18:34:40 10° SSW 18:39:01 29° W 18:43:25 10° NW visible
06 Oct 6.6 05:06:11 10° ENE 05:07:26 11° E 05:08:40 10° ESE visible
07 Oct 4.5 06:05:24 10° NNE 06:10:14 43° E 06:15:02 10° S visible
07 Oct 6.2 19:01:31 10° SW 19:04:42 17° W 19:07:54 10° NW visible
08 Oct 6.0 05:29:31 10° NE 05:33:10 20° E 05:36:49 10° SE visible
08 Oct 4.9 18:22:57 10° SSW 18:27:36 36° W 18:32:17 10° NNW visible
10 Oct 5.0 05:54:12 10° NNE 05:58:49 34° E 06:03:23 10° SSE visible
10 Oct 5.9 18:49:26 10° SW 18:53:13 21° W 18:57:02 10° NW visible
